sat.trackr.live / text

‹ back to catalog

STARLINK-5680

NORAD 55455 · 2023-015G

PAYLOAD ACTIVE UNKNOWN

§ Identity

Operator
Country
US
Launch date
2023-02-02
Launch site
AFETR
Launch vehicle
Mass (kg)
RCS (m²)

Purposes: comms

External: N2YO · Heavens-Above · Gunter

§ Orbital elements

Epoch: 2026-05-25T00:53:55.027680Z

Period
94.27 min
Inclination
42.9998°
Eccentricity
0.0001515
Mean motion
15.27574873 rev/d
Perigee alt
482.0 km
Apogee alt
484.1 km
Semi-major
6,861.2 km
B*
8.5519e-6
RAAN
257.9669°
Arg perigee
310.6335°
Mean anomaly
49.4385°
Rev number
18,239

§ Raw data

STARLINK-56801 55455U 23015G   26145.03744245 -.00000027  00000+0  85519-5 0  99942 55455  42.9998 257.9669 0001515 310.6335  49.4385 15.27574873182399

JSON: /api/v1/satellites/55455 · /tle

For live sub-satellite position, see the globe view (requires WebGL).

§ Visibility from observer

Set your observer location to see the next 7 days of passes ≥ 10°. The values pass through the URL so the page stays shareable.

No JS? Fill the form by hand. The geolocation button needs JavaScript.